ONEWEB-0096, 45439

Orbit data source: Space-Track

ONEWEB-0096, 45439 is a payload satellite owned by One Web (UK) in LEO that was launched on Sat, 21 Mar 2020 UTC via a SOYUZ-2-1B launch vehicle from the Tyuratam Missile And Space Complex (TTMTR). Payload-class satellites include a variety of spacecraft equipped with specific instruments for various scientific and technological missions. These include communications satellites like Starlink; space stations such as the ISS; scientific satellites like the Hubble; Earth observation satellites from companies like Planet Labs, Umbra, and HawkEye 360; GPS; miniature CubeSats for education and research; and military/defense satellites.

Loading next visibility...
Identifier
45439, 2020-020R
Orbit
LEO
Country
Flag of UKUK
Related business
Manufacturer
One Web
Mission
Operational Commercial Communications
Bus & Motor
ARROW, Unknown motor
Mass
148 kg wet, ~140 kg dry
Launch date (UTC)
2020-03-21 (6 years ago)
Launch vehicle
SOYUZ-2-1B
Launch site
Tyuratam Missile And Space Complex (TTMTR)
Object type
Payload
Rocket body
Debris
Shape & HBR
Trap Box + 2 Pan, 6.7 m
Radar Cross Section
3.464 m², Large (>1 m²)

Expand to show TLE details & history
Last TLE update: 9 hours ago

TLE from 9 hours ago
0 ONEWEB-0096
1 45439U 20020R   26035.07156056 -.00000197  00000-0 -59038-3 0  9992
2 45439  87.8829  47.5409 0001841  87.6612 272.4727 13.11418091285210
Epoch: 2026-02-04T01:43Z
TLE epoch observation values (Epoch: 2026-02-04T01:43:02.832Z)
Latitude
0.00001°
Longitude
-112.4643°
Altitude
1,220.507 km
Speed
7.244 km/s
True Right ascension
03h 10m 09s
True Declination
0° 00' 00"
Sunlit
Object was in daylight at epoch
Visualization orbit readout
Latitude
Unknown
Longitude
Unknown
Altitude
Unknown
Speed
Unknown
Apparent Right ascension
Unknown
Apparent Declination
Unknown
Sunlit
N/A
Visualization observer readout
Local Sidereal Time
12:47:09
Azimuth
Unknown
Elevation
Unknown
Doppler factor
Unknown
Orbital elements
Apogee altitude
1,216.194 km
Perigee altitude
1,213.399 km
Semi-major axis
7,592.934 km
Eccentricity
0.00018
Inclination
87.8829°
RAAN
47.5409°
Arg. of periapsis
87.6612°
True anomaly
272.45162°
Mean anomaly
272.4727°
Eccentric anomaly
272.46216°
Mean motion
3.28041 °/min
Orbital period
109.74 mins
BSTAR
-0.00059038
Loading maneuver chart data...
Computing Atmospheric mass density...
Loading historical data...
Loading historical data...
Loading historical data...
Loading historical data...
Loading historical data...
Loading historical data...
Loading historical data...

Documentation

Showing up to 5 results
|